SCP
5 5 4 4 4 3 3 3 2 2 1 1 1 1 1 1 1 1 1 1 1 1 1 1 1 1 1 1 1 0 0 0 0 0 0 0 1 1 1 1 1 1 1
5 5 4 4 4 3 3 3 3 2 2 2 1 1 1 1 1 1 1 1 1 1 1 1 0 1 1 1 1 0 0 0 0 0 0 0 0 1 1 1 1 1 1
5 5 5 4 4 4 3 3 3 3 3 2 2 1 1 1 1 1 1 1 1 1 1 1 1 0 0 0 0 0 0 0 0 0 0 0 0 1 1 1 1 1 1
4 4 5 5 4 4 3 3 3 3 3 3 2 2 1 1 1 1 1 1 1 1 1 1 1 1 1 1 0 0 0 0 0 0 0 0 0 1 1 1 1 0 0
4 4 4 5 5 4 4 3 3 3 3 3 3 2 2 1 1 1 1 1 1 1 1 1 1 1 1 1 1 0 0 0 0 0 0 0 0 1 1 1 0 0 0
4 3 4 4 5 4 4 3 3 3 3 3 3 2 2 1 1 1 1 1 1 1 1 1 1 1 1 1 1 1 1 0 0 0 0 0 1 1 1 1 1 1 1
4 4 4 4 5 4 4 3 3 3 3 3 3 2 2 2 1 1 1 1 1 1 1 1 1 1 1 1 1 1 1 0 0 0 0 0 1 1 1 1 1 1 1
4 4 4 4 5 4 4 3 3 3 3 3 3 2 2 2 2 1 1 1 1 1 1 1 1 1 1 1 1 1 1 0 0 0 0 0 1 1 1 1 1 1 1
4 4 4 4 5 4 3 3 3 3 3 3 3 2 2 2 2 2 2 1 1 1 1 1 1 1 1 1 1 1 1 0 0 0 0 0 1 1 1 1 1 1 1
3 3 4 4 5 4 3 3 3 2 2 2 2 2 1 1 1 1 1 1 1 1 1 1 1 1 1 1 1 1 1 1 0 0 0 0 1 1 1 1 1 1 1
3 3 4 4 5 4 4 3 2 2 2 2 1 1 1 1 1 1 1 1 1 1 1 1 1 1 1 1 1 1 1 1 0 0 0 0 1 1 1 1 1 1 1
3 3 3 4 4 4 4 3 2 2 2 2 1 1 1 1 1 1 1 1 1 1 1 1 1 1 1 1 0 0 1 0 0 0 0 1 1 1 1 1 1 1 1
3 3 3 3 4 4 4 3 2 2 2 2 2 1 1 1 1 1 1 1 1 1 1 1 1 1 1 0 0 0 0 0 0 0 0 1 1 1 1 1 1 1 1
3 3 3 3 3 3 3 2 2 2 2 2 2 2 1 1 1 1 1 1 1 1 1 1 1 1 1 0 0 0 0 0 0 0 0 0 1 1 1 1 1 1 1
3 3 2 2 3 3 3 2 2 1 1 2 2 2 2 1 1 1 2 1 1 1 1 1 1 1 1 0 0 0 0 0 0 0 0 0 0 1 1 1 1 1 1
2 2 1 2 2 2 2 2 1 1 1 1 1 2 2 1 1 2 2 1 1 1 1 2 1 1 1 0 0 0 0 0 0 0 0 0 0 0 1 1 1 1 1
2 1 1 1 1 1 1 1 1 0 1 1 1 1 1 1 1 1 2 2 1 1 1 2 2 1 1 0 0 0 0 0 0 0 0 0 0 0 0 1 1 1 1
1 1 0 0 0 1 1 0 0 0 0 0 0 0 1 1 1 1 1 1 1 1 1 2 2 1 1 0 0 0 0 0 0 0 0 0 0 0 0 0 1 1 1
0 0 0 0 0 0 0 0 0 0 0 0 0 0 1 1 1 1 0 1 1 1 1 1 2 2 1 0 0 0 0 0 0 1 1 0 0 0 0 0 0 0 0
0 0 0 0 0 0 0 0 0 0 0 0 0 0 1 1 1 0 0 0 0 1 1 1 1 2 1 1 0 0 0 0 0 0 0 0 0 0 0 0 0 0 0
0 0 0 0 0 0 0 0 0 0 0 0 0 0 1 1 1 0 0 0 0 0 0 1 1 1 1 1 1 1 0 0 0 0 0 0 0 0 0 0 0 0 0
0 0 0 0 0 0 0 0 0 1 0 0 0 0 1 1 0 0 0 0 0 0 0 0 0 1 1 1 1 0 0 0 0 0 0 0 0 0 0 0 0 0 0
0 0 0 0 0 0 0 0 1 0 0 0 0 0 1 1 0 0 0 0 0 0 0 0 0 0 1 1 1 0 0 0 0 0 0 0 0 0 0 0 0 0 0
0 0 0 0 0 0 0 1 0 0 0 0 0 0 0 1 0 0 0 0 0 0 0 0 0 0 0 0 0 0 0 0 0 0 0 0 0 0 0 0 0 0 0
0 0 0 0 0 0 0 0 0 0 0 0 0 0 0 0 0 0 0 0 0 0 0 1 0 0 0 0 0 0 0 0 0 0 0 0 0 0 0 0 0 0 0
0 0 0 0 0 0 0 0 0 0 0 0 0 0 0 0 0 0 0 0 0 0 0 1 1 0 0 0 0 0 0 0 0 0 0 0 0 0 0 0 0 0 0
Wind_Speed
8 11 12 12 11 11 10 9 9 9 8 8 8 8 7 7 7 7 7 7 7 7 7 7 7 7 7 7 7 7 7 6 6 6 6 6 6 6 6 5 5 5 7
11 12 13 12 11 11 10 9 9 8 8 8 7 7 7 7 7 7 7 7 7 7 7 7 7 6 6 7 7 6 5 5 4 3 3 3 4 4 5 6 6 4 6
12 12 12 12 11 10 10 9 8 8 8 8 7 7 7 7 6 6 6 6 6 6 6 6 6 6 6 5 5 5 4 3 2 1 1 1 2 4 4 4 4 4 4
10 11 10 11 10 10 10 9 8 8 7 7 7 6 6 6 6 6 6 6 6 5 6 6 6 6 5 4 4 4 3 2 3 4 2 1 2 4 4 3 2 2 2
9 10 10 11 10 10 9 8 8 7 7 6 6 6 6 6 5 6 5 6 5 5 5 5 5 4 4 4 3 3 2 3 5 5 2 0 1 4 3 2 1 1 0
8 9 9 11 10 9 8 8 7 7 7 6 6 5 5 5 5 5 5 5 5 5 4 4 4 4 4 3 3 2 3 5 5 4 2 0 1 3 2 1 0 1 1
7 8 9 10 9 9 8 7 7 6 6 6 6 5 5 5 5 5 5 5 4 4 3 3 3 3 3 3 2 3 4 6 5 3 1 1 2 3 1 0 1 2 2
7 7 8 9 9 8 8 7 7 6 6 6 6 6 5 5 5 6 5 5 5 4 4 4 3 3 2 2 3 3 5 6 5 4 1 1 2 2 1 2 2 3 3
6 6 6 7 7 8 8 7 6 6 6 6 5 5 5 4 5 5 5 5 4 3 3 3 3 3 3 2 3 4 5 7 5 3 2 1 2 1 2 2 2 3 3
4 4 5 5 5 5 6 7 7 7 6 6 5 5 3 3 4 5 5 4 4 3 3 3 2 3 3 3 4 5 6 7 4 3 1 1 1 1 1 2 3 3 4
3 3 3 4 4 4 5 6 6 6 6 5 4 5 3 2 3 3 4 4 3 2 1 2 2 3 4 5 6 6 5 2 2 1 1 1 1 1 1 2 3 3 3
3 3 3 3 3 3 4 4 3 3 3 3 2 2 1 1 2 2 4 3 2 1 1 2 4 4 3 2 3 4 2 2 1 1 1 2 2 1 1 2 2 3 4
3 3 3 3 3 3 2 2 1 1 2 2 2 1 1 1 1 1 1 2 1 1 1 2 3 2 2 1 1 1 2 1 1 1 1 2 2 1 2 2 2 3 3
4 3 3 3 3 3 3 2 2 2 1 2 2 2 1 1 1 1 1 1 0 0 1 1 1 2 2 2 2 1 2 1 1 1 1 2 2 1 2 3 3 4 4
4 3 2 3 3 3 3 2 2 2 1 2 2 2 2 1 1 1 1 1 1 1 1 1 2 2 2 2 2 2 2 2 1 1 1 2 2 2 2 3 4 4 5
4 3 3 3 3 3 2 2 2 2 1 2 2 2 2 2 1 1 1 1 1 1 1 1 2 2 2 1 2 2 2 2 1 1 0 1 1 1 2 4 5 5 5
4 4 3 3 3 3 3 2 2 2 2 2 1 2 2 2 1 1 1 1 1 1 1 1 2 1 1 2 2 2 2 2 2 1 1 0 0 1 2 3 4 5 5
4 4 3 3 3 3 3 2 2 2 2 2 2 2 2 2 2 1 1 1 1 1 1 1 1 1 1 2 2 2 2 2 2 1 1 1 1 1 2 3 4 5 6
4 4 4 3 3 4 3 2 2 2 2 2 2 2 2 2 2 2 1 1 2 1 1 2 1 1 1 1 2 1 2 2 2 1 1 1 1 1 1 2 4 4 5
4 5 4 4 2 3 2 2 2 2 1 1 2 2 2 2 2 2 1 2 2 1 1 1 1 1 1 1 2 2 2 2 1 1 1 1 1 1 1 2 2 2 4
4 5 4 3 2 2 1 1 1 1 1 1 1 2 2 2 2 1 1 1 2 1 2 2 1 1 1 1 1 2 2 2 0 0 1 1 1 2 2 2 1 1 2
4 4 3 3 3 1 1 1 1 2 1 1 1 1 1 1 2 1 1 1 1 1 2 2 1 1 1 1 1 1 2 2 2 1 1 1 1 2 2 2 2 2 2
3 3 2 3 3 2 2 2 2 2 1 1 1 1 1 1 1 1 1 1 1 1 1 1 1 1 1 1 0 0 0 2 2 2 1 1 1 1 2 1 2 2 2
3 3 3 2 2 2 3 3 2 2 1 1 1 1 0 0 0 1 1 1 1 1 1 1 1 1 0 1 1 1 1 1 1 2 2 1 1 2 2 2 2 2 2
4 3 3 3 2 2 2 2 2 1 1 1 1 1 0 0 0 0 1 1 1 1 1 1 1 1 1 1 1 1 1 1 1 1 3 2 2 2 2 2 2 1 1
4 3 3 3 2 2 2 2 1 1 1 1 1 1 1 0 0 1 1 1 1 1 1 1 1 1 1 1 1 1 1 1 1 1 3 3 3 3 3 2 2 2 1
Wind_Direction
118 125 132 128 123 118 113 110 111 110 108 107 105 101 97 94 92 90 89 87 86 83 79 76 72 70 68 68 70 68 67 68 70 74 73 71 74 74 66 61 65 70 79
122 128 131 128 124 119 115 110 106 107 106 105 106 104 101 98 96 94 92 89 89 86 81 77 73 70 69 66 67 70 69 67 72 82 92 89 94 89 76 66 62 63 73
123 129 130 126 124 122 118 112 108 108 109 106 106 105 104 102 101 97 94 88 84 82 80 76 69 68 67 64 62 62 63 55 39 346 256 187 138 124 105 88 75 67 66
121 123 126 127 126 124 120 116 113 111 112 112 111 108 106 106 105 100 95 89 83 78 76 72 68 66 60 59 57 54 45 8 334 305 266 199 138 123 128 115 94 72 63
115 118 122 125 125 125 123 122 119 116 113 113 113 110 108 107 106 102 96 87 80 74 76 71 66 62 57 52 46 35 5 329 311 299 290 37 90 123 127 121 92 49 35
112 115 124 125 123 124 125 125 123 120 118 115 116 113 111 108 102 97 93 87 80 74 73 67 60 54 50 39 25 6 339 320 307 283 273 163 96 127 123 123 27 289 292
108 115 125 127 127 124 126 127 125 122 122 120 116 116 113 108 103 96 88 85 81 73 66 56 48 37 32 21 359 339 324 317 293 289 329 59 95 112 104 292 298 283 283
106 117 127 126 126 125 122 125 124 121 117 116 113 112 112 108 104 101 91 85 80 73 63 50 35 19 12 1 341 324 314 309 304 304 320 68 96 96 16 331 312 305 298
101 116 131 137 132 125 119 119 119 116 113 111 110 105 105 110 112 108 93 83 76 65 55 44 30 13 353 334 317 308 301 297 298 294 313 53 67 48 316 300 298 310 312
100 110 122 131 130 132 124 114 120 120 122 120 118 121 122 129 129 119 99 89 79 65 48 34 13 351 334 306 288 285 286 291 279 292 341 32 47 339 309 306 303 303 305
107 104 120 126 128 128 131 127 130 135 138 137 139 149 157 160 139 123 116 112 98 78 44 7 332 313 299 280 265 267 280 263 277 309 16 52 62 35 319 306 305 306 307
130 131 124 119 124 125 133 141 145 148 146 153 137 147 150 99 105 115 138 152 164 208 278 286 294 286 277 264 257 257 268 270 286 349 35 70 71 33 348 331 326 316 315
121 121 109 104 118 121 117 126 111 113 133 117 99 98 87 81 104 122 144 161 209 216 272 292 286 282 294 297 286 260 285 314 341 8 39 66 52 14 353 341 336 328 322
104 104 105 99 100 107 109 113 124 104 98 96 88 65 66 61 54 65 81 80 63 21 336 316 299 311 320 319 320 328 328 333 358 24 55 71 63 19 340 330 327 324 321
109 106 108 108 93 82 89 101 96 87 79 91 83 65 64 64 49 38 43 44 21 5 360 321 312 327 325 327 334 346 341 341 1 3 55 72 54 17 342 326 322 320 318
121 120 114 113 103 91 82 91 85 88 87 72 70 68 60 62 49 33 25 27 9 350 340 314 315 316 315 336 337 334 326 335 355 3 68 73 53 21 352 329 324 319 317
124 120 120 112 108 102 88 77 76 78 82 75 65 57 55 55 39 30 28 22 346 328 333 334 328 332 343 348 340 341 338 340 336 338 24 92 73 39 6 348 347 339 332
118 116 113 112 110 98 85 77 70 63 61 59 53 48 44 38 21 19 27 6 331 347 349 331 335 348 354 351 336 328 326 322 321 334 6 33 44 47 22 13 0 350 344
112 109 99 94 109 106 90 79 72 67 66 57 55 46 30 30 21 27 3 347 345 351 350 328 0 352 344 343 318 312 314 311 310 336 5 29 42 50 40 16 13 2 351
112 107 103 97 100 109 109 97 79 62 62 63 62 59 30 15 19 19 354 355 360 355 346 337 337 345 354 325 320 325 301 286 300 347 353 20 32 37 47 28 17 7 359
112 109 110 115 114 113 118 114 114 114 83 69 61 62 38 9 3 11 19 6 6 354 332 335 349 360 1 2 0 327 300 273 165 44 24 30 24 27 33 20 19 10 355
115 113 120 123 120 122 108 99 98 93 84 89 61 52 40 10 359 3 13 2 358 352 348 351 357 360 347 21 21 325 325 323 349 349 2 22 34 21 8 3 17 12 358
131 129 131 124 126 124 108 94 79 67 54 60 74 51 3 18 15 1 351 358 351 353 334 335 348 359 314 299 34 117 205 277 313 293 293 356 19 358 338 335 355 0 355
141 132 125 125 135 136 125 128 140 151 164 190 161 113 60 63 25 359 338 339 336 340 336 325 5 331 257 268 297 278 214 197 251 300 303 317 331 327 323 326 327 323 334
138 134 131 136 148 136 129 140 143 154 162 144 123 113 64 320 295 326 325 342 342 340 336 333 322 323 250 240 253 283 277 275 228 236 276 291 300 279 290 297 290 295 310
134 129 134 143 144 132 139 138 151 175 173 161 185 182 189 230 269 265 252 258 277 284 288 284 285 282 283 258 254 257 243 245 248 244 266 285 287 278 274 266 273 277 287